User: anonymous   Login
Location: Vancouver
(49.2500°N, 123.1330°W)
Time: 21:55:24
(UTC-07:00)
Language:

SO-67 - Orbit

View from above orbital plane
View from above orbital plane
View from above satellite
View from above satellite

Ground track
Ground track

The orbit data is extracted from the following two-line orbital elements,

1 35870U 09049F   18114.88593929  .00007527  00000-0  10426-3 0  9990
2 35870  97.0870 134.3028 0002649  47.1160  73.9154 15.57372531481671
Epoch (UTC): 24 April 2018 21:15:45
Eccentricity: 0.0002649
inclination: 97.0870°
perigee height: 393 km
apogee height: 397 km
right ascension of ascending node: 134.3028°
argument of perigee: 47.1160°
revolutions per day: 15.57372531
mean anomaly at epoch: 73.9154°
orbit number at epoch: 48167

The dashed part of the orbit path shows where the satellite is in the earth's shadow,  

DLR